CW5020 Weather Reports


Display with metric or nautical units.
time (UTC)temp
F
wind
direction
speed
MPH
gust
MPH
rain 1hr
in
rain 24hr
in
rain mn
in
humidity
%
barometer
mb
20260502202007 57 278 2.0 12.0 0.00 0.00 0.00 38 1017.0
20260502201010 57 322 2.0 7.0 0.00 0.00 0.00 36 1017.1
20260502200506 57 209 2.0 7.0 0.00 0.00 0.00 44 1017.1
20260502200009 56 297 2.0 7.0 0.00 0.00 0.00 41 1017.3
20260502195506 55 248 2.0 5.0 0.00 0.00 0.00 44 1017.3
20260502195006 55 167 2.0 7.0 0.00 0.00 0.00 41 1017.4
20260502194505 54 289 2.0 11.0 0.00 0.00 0.00 43 1017.5
20260502194005 53 286 2.0 11.0 0.00 0.00 0.00 44 1017.6
20260502193504 52 46 2.0 8.0 0.00 0.00 0.00 43 1017.7
20260502193005 52 270 1.0 6.0 0.00 0.00 0.00 44 1017.7
20260502192504 53 340 1.0 8.0 0.00 0.00 0.00 42 1017.7
20260502191506 53 287 2.0 10.0 0.00 0.00 0.00 45 1017.8
20260502191004 53 267 2.0 10.0 0.00 0.00 0.00 44 1017.8
20260502190504 53 276 2.0 8.0 0.00 0.00 0.00 41 1017.9
20260502190009 54 138 3.0 8.0 0.00 0.00 0.00 39 1017.8
20260502185508 54 277 3.0 8.0 0.00 0.00 0.00 42 1017.8
20260502184504 52 272 1.0 4.0 0.00 0.00 0.00 45 1018.0
20260502184005 52 284 2.0 8.0 0.00 0.00 0.00 44 1018.2
20260502183007 53 269 2.0 8.0 0.00 0.00 0.00 43 1018.2
20260502182506 52 274 2.0 8.0 0.00 0.00 0.00 45 1018.2
20260502182005 52 271 3.0 7.0 0.00 0.00 0.00 42 1018.3
20260502181505 52 273 3.0 8.0 0.00 0.00 0.00 44 1018.3
20260502181005 53 294 2.0 8.0 0.00 0.00 0.00 44 1018.2
20260502180504 52 36 2.0 7.0 0.00 0.00 0.00 44 1018.3
20260502170506 52 263 2.0 8.0 0.00 0.00 0.00 46 1018.9
20260502164007 52 276 4.0 10.0 0.00 0.00 0.00 46 1019.1
20260502163004 51 28 3.0 8.0 0.00 0.00 0.00 44 1019.1
20260502162505 51 335 3.0 8.0 0.00 0.00 0.00 43 1019.2
20260502162006 51 257 3.0 8.0 0.00 0.00 0.00 45 1019.2
20260502161505 51 286 3.0 8.0 0.00 0.00 0.00 45 1019.2
20260502161006 51 275 2.0 8.0 0.00 0.00 0.00 46 1019.2
20260502160504 50 273 2.0 7.0 0.00 0.00 0.00 45 1019.3
20260502152007 49 311 3.0 9.0 0.00 0.00 0.00 47 1019.4
20260502151505 49 290 2.0 8.0 0.00 0.00 0.00 49 1019.4
20260502151006 48 275 2.0 6.0 0.00 0.00 0.00 48 1019.4
20260502130505 38 310 0.0 1.0 0.00 0.00 0.00 81 1019.3
20260502123007 33 342 0.0 1.0 0.00 0.00 0.00 93 1019.4
20260502122504 33 342 0.0 1.0 0.00 0.00 0.00 93 1019.4
20260502122006 32 45 0.0 1.0 0.00 0.00 0.00 93 1019.4
20260502121505 32 46 0.0 1.0 0.00 0.00 0.00 93 1019.4
20260502121005 32 46 0.0 1.0 0.00 0.00 0.00 93 1019.2
20260502115505 31 46 0.0 0.0 0.00 0.00 0.00 92 1018.9
20260502115005 30 46 0.0 0.0 0.00 0.00 0.00 92 1018.9
20260502114505 30 46 0.0 0.0 0.00 0.00 0.00 92 1018.7
20260502114004 30 46 0.0 0.0 0.00 0.00 0.00 92 1018.8
20260502113504 30 46 0.0 0.0 0.00 0.00 0.00 92 1018.8
20260502113006 30 46 0.0 0.0 0.00 0.00 0.00 92 1018.7
20260502112505 30 46 0.0 0.0 0.00 0.00 0.00 92 1018.6
20260502111504 30 46 0.0 0.0 0.00 0.00 0.00 91 1018.5
20260502111011 30 46 0.0 0.0 0.00 0.00 0.00 91 1018.6
20260502110505 30 46 0.0 0.0 0.00 0.00 0.00 91 1018.6
20260502110007 30 46 0.0 0.0 0.00 0.00 0.00 91 1018.5
20260502105505 30 46 0.0 0.0 0.00 0.00 0.00 91 1018.6
20260502105005 30 46 0.0 0.0 0.00 0.00 0.00 91 1018.6
20260502104505 30 46 0.0 0.0 0.00 0.00 0.00 91 1018.6
20260502104005 30 46 0.0 0.0 0.00 0.00 0.00 91 1018.5
20260502102505 30 46 0.0 0.0 0.00 0.00 0.00 91 1018.5
20260502101504 30 52 0.0 0.0 0.00 0.00 0.00 91 1018.4
20260502101006 30 52 0.0 0.0 0.00 0.00 0.00 91 1018.5
20260502100504 30 52 0.0 0.0 0.00 0.00 0.00 91 1018.4
20260502091504 30 52 0.0 0.0 0.00 0.01 0.00 91 1018.4
20260502091005 30 52 0.0 0.0 0.00 0.01 0.00 91 1018.3
20260502090505 30 52 0.0 0.0 0.00 0.01 0.00 91 1018.4
20260502071505 31 52 0.0 0.0 0.00 0.02 0.00 89 1018.6
20260502071005 31 52 0.0 0.0 0.00 0.02 0.00 89 1018.6
20260502070505 31 52 0.0 0.0 0.00 0.02 0.00 89 1018.7
20260502070005 31 52 0.0 0.0 0.00 0.02 0.00 89 1018.8
20260502065505 31 52 0.0 0.0 0.00 0.02 0.00 89 1018.8
20260502065004 31 52 0.0 0.0 0.00 0.02 0.00 89 1018.8
20260502064505 31 52 0.0 0.0 0.00 0.02 0.00 89 1018.8
20260502064004 31 52 0.0 0.0 0.00 0.02 0.00 89 1018.9
20260502063501 31 52 0.0 0.0 0.00 0.02 0.00 89 1018.9
20260502063004 31 52 0.0 0.0 0.00 0.02 0.00 89 1018.9
20260502062506 31 52 0.0 0.0 0.00 0.02 0.00 88 1019.0
20260502062004 31 52 0.0 0.0 0.00 0.02 0.00 88 1019.1
20260502061504 31 52 0.0 0.0 0.00 0.02 0.00 88 1019.1
20260502061005 31 52 0.0 0.0 0.00 0.02 0.00 88 1019.0
20260502060502 31 52 0.0 0.0 0.00 0.02 0.00 87 1019.1
20260502055008 31 52 0.0 0.0 0.00 0.04 0.00 87 1019.2
20260502054505 31 52 0.0 0.0 0.00 0.04 0.00 87 1019.2
20260502054009 32 52 0.0 0.0 0.00 0.04 0.00 87 1019.1
20260502053506 32 52 0.0 0.0 0.00 0.04 0.00 87 1019.1
20260502053010 32 52 0.0 0.0 0.00 0.04 0.00 87 1019.2
20260502052504 32 52 0.0 0.0 0.00 0.04 0.00 86 1019.1
20260502052009 32 52 0.0 0.0 0.00 0.04 0.00 86 1019.0
20260502051506 32 52 0.0 0.0 0.00 0.04 0.00 86 1019.0
20260502051005 32 52 0.0 0.0 0.00 0.04 0.00 86 1019.1
20260502050505 32 52 0.0 0.0 0.00 0.04 0.00 86 1019.0
20260502050013 32 52 0.0 0.0 0.00 0.04 0.00 86 1019.0
20260502045506 32 52 0.0 0.0 0.00 0.08 0.04 86 1019.1
20260502045008 32 52 0.0 0.0 0.00 0.08 0.04 86 1019.1
20260502044505 33 52 0.0 0.0 0.00 0.08 0.04 85 1019.1
20260502044008 33 52 0.0 0.0 0.00 0.08 0.04 85 1019.0
20260502043505 33 52 0.0 0.0 0.00 0.08 0.04 85 1019.1
20260502043006 33 52 0.0 0.0 0.00 0.08 0.04 85 1019.1
20260502042506 33 52 0.0 0.0 0.00 0.08 0.04 85 1019.2
20260502042008 33 52 0.0 0.0 0.00 0.08 0.04 85 1019.1
20260502041505 33 52 0.0 0.0 0.00 0.08 0.04 85 1018.9
20260502041013 33 52 0.0 0.0 0.00 0.08 0.04 84 1018.9
20260502040506 34 52 0.0 0.0 0.00 0.08 0.04 84 1018.9
20260502040007 34 52 0.0 0.0 0.00 0.08 0.04 84 1018.9
20260502035508 34 52 0.0 0.0 0.00 0.08 0.04 83 1018.9
20260502035006 34 52 0.0 0.0 0.00 0.08 0.04 83 1018.9
20260502034505 34 52 0.0 0.0 0.00 0.08 0.04 83 1018.9
20260502034008 34 52 0.0 0.0 0.00 0.08 0.04 83 1018.8
20260502033505 34 52 0.0 0.0 0.00 0.08 0.04 83 1018.8
20260502033006 34 52 0.0 0.0 0.00 0.08 0.04 82 1018.8
20260502032007 35 52 0.0 0.0 0.00 0.08 0.04 82 1018.8
20260502031513 35 52 0.0 0.0 0.00 0.08 0.04 81 1018.7
20260502030505 35 52 0.0 0.0 0.00 0.08 0.04 81 1018.7
20260502030009 36 52 0.0 0.0 0.00 0.13 0.04 80 1018.7
20260502025505 36 52 0.0 0.0 0.00 0.13 0.04 80 1018.7
20260502025010 36 52 0.0 0.0 0.00 0.13 0.04 80 1018.7
20260502024004 36 52 0.0 0.0 0.00 0.13 0.04 79 1018.5
20260502023504 36 52 0.0 0.0 0.00 0.13 0.04 79 1018.5
20260502022505 37 52 0.0 0.0 0.00 0.13 0.04 78 1018.4
20260502022005 37 52 0.0 0.0 0.00 0.13 0.04 79 1018.4
20260502021508 37 52 0.0 0.0 0.00 0.13 0.04 78 1018.5
20260502021006 37 52 0.0 0.0 0.00 0.13 0.04 78 1018.4
20260502015504 38 52 0.0 2.0 0.00 0.18 0.04 77 1018.2
20260502014506 38 52 0.0 2.0 0.00 0.18 0.04 76 1018.1
20260502014006 38 50 0.0 3.0 0.00 0.18 0.04 75 1018.0
20260502013506 38 49 1.0 3.0 0.00 0.18 0.04 75 1017.9
20260502013006 39 46 1.0 4.0 0.00 0.18 0.04 73 1018.0
20260502012006 39 59 1.0 6.0 0.00 0.18 0.04 69 1017.7
20260502011505 40 65 1.0 4.0 0.00 0.18 0.04 69 1017.7
20260502011005 40 52 1.0 5.0 0.00 0.18 0.04 68 1017.6
20260502010506 40 63 1.0 5.0 0.00 0.18 0.04 67 1017.6
20260502010007 40 46 1.0 4.0 0.00 0.21 0.04 68 1017.5
20260502005505 40 63 1.0 3.0 0.00 0.21 0.04 67 1017.5
20260502004505 41 59 1.0 4.0 0.00 0.21 0.04 66 1017.4
20260502004005 41 26 2.0 4.0 0.00 0.21 0.04 66 1017.3
20260502003506 41 63 1.0 4.0 0.00 0.21 0.04 68 1017.4
20260502003006 42 61 0.0 4.0 0.00 0.21 0.04 68 1017.3
20260502002005 42 355 1.0 4.0 0.00 0.21 0.04 67 1017.3
20260502001506 43 52 1.0 5.0 0.00 0.21 0.04 67 1017.4
20260502001005 43 63 1.0 5.0 0.00 0.21 0.04 67 1017.3
20260502000505 43 64 2.0 6.0 0.00 0.21 0.04 67 1017.2
20260502000005 44 33 1.0 6.0 0.00 0.25 0.04 67 1017.3
20260501235506 44 69 1.0 4.0 0.00 0.25 0.04 67 1017.3
20260501235006 44 43 0.0 4.0 0.00 0.25 0.04 67 1017.3
20260501234505 44 39 0.0 4.0 0.00 0.25 0.04 66 1017.2
20260501234004 45 57 0.0 3.0 0.00 0.25 0.04 66 1017.0
20260501233504 45 44 0.0 3.0 0.00 0.25 0.04 66 1016.9
20260501233005 45 51 0.0 2.0 0.00 0.25 0.04 67 1016.9
20260501232505 45 42 0.0 1.0 0.00 0.25 0.04 66 1016.8
20260501232006 45 42 0.0 1.0 0.00 0.25 0.04 70 1016.9
20260501231507 45 42 0.0 2.0 0.00 0.25 0.04 69 1017.1
20260501231005 45 42 0.0 2.0 0.00 0.25 0.04 68 1017.2
20260501230505 45 42 0.0 2.0 0.00 0.25 0.04 68 1017.2
20260501230007 45 42 0.0 3.0 0.00 0.25 0.04 68 1017.1
20260501225505 45 38 1.0 4.0 0.00 0.27 0.04 68 1017.1
20260501225006 45 80 1.0 4.0 0.00 0.27 0.04 67 1017.2
20260501224505 45 68 0.0 4.0 0.00 0.27 0.04 68 1017.0
20260501224004 45 68 2.0 5.0 0.00 0.27 0.04 67 1017.1
20260501223506 46 37 2.0 5.0 0.00 0.27 0.04 67 1017.0
20260501223005 46 21 1.0 5.0 0.00 0.27 0.04 68 1017.0
20260501222504 45 14 1.0 5.0 0.00 0.27 0.04 69 1017.0
20260501222007 45 53 1.0 5.0 0.00 0.27 0.04 69 1017.1
20260501221505 45 66 1.0 5.0 0.00 0.27 0.04 70 1017.0
20260501221006 45 59 1.0 4.0 0.00 0.27 0.04 69 1016.9
20260501220504 45 51 1.0 3.0 0.00 0.27 0.04 70 1017.0
20260501220005 45 52 1.0 4.0 0.00 0.31 0.04 70 1016.9
20260501215506 45 54 1.0 4.0 0.00 0.31 0.04 68 1017.0
20260501215004 45 41 1.0 4.0 0.00 0.31 0.04 68 1017.0
20260501214505 45 56 0.0 3.0 0.00 0.31 0.04 68 1016.9
20260501214005 45 43 0.0 3.0 0.00 0.31 0.04 70 1016.9
20260501213507 45 55 0.0 3.0 0.00 0.31 0.04 68 1017.0
20260501213005 45 55 0.0 2.0 0.00 0.31 0.04 67 1016.8
20260501212504 45 55 1.0 3.0 0.00 0.31 0.04 68 1016.7
20260501212007 46 53 1.0 3.0 0.00 0.31 0.04 67 1016.8
20260501211504 46 51 1.0 3.0 0.00 0.31 0.04 66 1016.8
20260501211006 46 51 0.0 3.0 0.00 0.31 0.04 67 1016.7
20260501210505 46 58 0.0 3.0 0.00 0.31 0.04 70 1016.7
20260501210005 46 58 1.0 4.0 0.00 0.31 0.04 69 1016.7
20260501205505 46 42 1.0 4.0 0.00 0.31 0.04 67 1016.8
20260501205005 46 63 0.0 4.0 0.00 0.31 0.04 69 1016.8
20260501202504 46 38 1.0 3.0 0.00 0.31 0.04 65 1016.7